Hamilton, OH

4:47 AM EDT on June 29, 2017 (GMT -0400)
Butler County Regional

Weather History for KHAO - October, 2013

Change the Weather History Date:

Wednesday, October 30, 2013

  Actual Average (KLUK) Record (KLUK)
Temperature  
Mean Temperature 57 °F -  
Max Temperature 64 °F 63 °F 82 °F (1971)
Min Temperature 50 °F 39 °F 25 °F (1966)
Degree Days  
Heating Degree Days 8    
Growing Degree Days 7 (Base 50)    
Moisture  
Dew Point 56 °F    
Average Humidity 95    
Maximum Humidity 100    
Minimum Humidity 88    
Precipitation  
Precipitation 0.18 in - - ()
Sea Level Pressure  
Sea Level Pressure 30.14 in    
Wind  
Wind Speed 0 mph (ESE)    
Max Wind Speed 5 mph    
Max Gust Speed -    
Visibility 3 miles    
Events Rain    
Averages and records for this station are not official NWS values.
T = Trace of Precipitation, MM = Missing Value Source: NWS Daily Summary

Daily Weather History Graph

Daily Weather History Graph

Search for Another Location

Airport or City:

Trip Planner

Search our weather history database for the weather conditions in past years. The results will help you decide how hot, cold, wet, or windy it might be!

Date:

Astronomy

Oct. 30, 2013 Rise Set
Actual Time 8:04 AM EDT 6:38 PM EDT
Civil Twilight 7:36 AM EDT 7:06 PM EDT
Nautical Twilight 7:04 AM EDT 7:38 PM EDT
Astronomical Twilight 6:33 AM EDT 8:09 PM EDT
Moon 3:53 AM EDT (10/30) 4:22 PM EDT (10/30)
Length of Visible Light 11h 30m
Length of Day
10h 34m
Waning Crescent, 17% of the Moon is Illuminated
Oct 30
Waning Crescent
Nov 3
New
Nov 10
First Quarter
Nov 17
Full
Nov 25
Last Quarter

Hourly Weather History & Observations

Time (EDT) Temp. Dew Point Humidity Pressure Visibility Wind Dir Wind Speed Gust Speed Precip Events Conditions
12:53 AM 50.0 °F 48.9 °F 96% 30.22 in 5.0 mi Calm Calm - 0.01 in Rain Light Rain
1:36 AM 51.8 °F 48.2 °F 88% 30.19 in 2.5 mi Calm Calm - 0.04 in Rain Rain
1:53 AM 51.1 °F 50.0 °F 96% 30.20 in 2.0 mi Calm Calm - 0.07 in Rain Rain
2:18 AM 51.8 °F 50.0 °F 94% 30.19 in 3.0 mi Calm Calm - 0.01 in Rain Light Rain
2:34 AM 51.8 °F 51.8 °F 100% 30.20 in 2.5 mi Calm Calm - 0.04 in Rain Heavy Rain
2:40 AM 51.8 °F 51.8 °F 100% 30.19 in 1.5 mi Calm Calm - 0.07 in Rain Heavy Rain
2:49 AM 51.8 °F 51.8 °F 100% 30.18 in 2.0 mi Calm Calm - 0.08 in Rain Light Rain
2:53 AM 52.0 °F 51.1 °F 97% 30.19 in 2.5 mi Calm Calm - 0.08 in Rain Light Rain
3:34 AM 51.8 °F 51.8 °F 100% 30.17 in 3.0 mi ENE 3.5 mph - 0.01 in Rain Light Rain
3:53 AM 53.1 °F 52.0 °F 96% 30.17 in 3.0 mi East 3.5 mph - 0.01 in Rain Light Rain
4:00 AM 53.6 °F 51.8 °F 94% 30.17 in 3.0 mi Calm Calm - 0.00 in Rain Light Rain
4:30 AM 53.6 °F 51.8 °F 94% 30.16 in 2.5 mi Calm Calm - 0.00 in   Overcast
4:40 AM 53.6 °F 51.8 °F 94% 30.16 in 3.0 mi Calm Calm - 0.00 in   Overcast
4:53 AM 53.1 °F 52.0 °F 96% 30.16 in 3.0 mi Calm Calm - 0.00 in   Overcast
5:03 AM 53.6 °F 51.8 °F 94% 30.16 in 3.0 mi Calm Calm - N/A   Overcast
5:15 AM 53.6 °F 51.8 °F 94% 30.16 in 2.0 mi Calm Calm - N/A   Overcast
5:33 AM 53.6 °F 51.8 °F 94% 30.16 in 2.0 mi Calm Calm - 0.01 in Rain Light Rain
5:50 AM 53.6 °F 51.8 °F 94% 30.17 in 1.5 mi Calm Calm - 0.01 in   Overcast
5:53 AM 53.1 °F 52.0 °F 96% 30.17 in 1.5 mi Calm Calm - 0.01 in   Overcast
6:00 AM 53.6 °F 51.8 °F 94% 30.16 in 2.0 mi Calm Calm - N/A   Overcast
6:09 AM 53.6 °F 51.8 °F 94% 30.16 in 1.5 mi Calm Calm - N/A   Overcast
6:23 AM 53.6 °F 51.8 °F 94% 30.17 in 1.8 mi Calm Calm - N/A   Overcast
6:45 AM 53.6 °F 53.6 °F 100% 30.17 in 2.0 mi Calm Calm - 0.00 in Rain Light Rain
6:53 AM 53.1 °F 53.1 °F 100% 30.17 in 1.5 mi Calm Calm - 0.00 in Rain Light Rain
7:08 AM 53.6 °F 51.8 °F 94% 30.16 in 0.8 mi Calm Calm - 0.00 in   Overcast
7:39 AM 53.6 °F 51.8 °F 94% 30.16 in 1.5 mi Calm Calm - 0.00 in   Overcast
7:49 AM 53.6 °F 53.6 °F 100% 30.16 in 1.8 mi Calm Calm - 0.00 in   Overcast
7:53 AM 53.1 °F 52.0 °F 96% 30.16 in 1.5 mi Calm Calm - 0.00 in   Overcast
8:00 AM 53.6 °F 53.6 °F 100% 30.15 in 1.8 mi Calm Calm - N/A   Overcast
8:08 AM 53.6 °F 53.6 °F 100% 30.15 in 2.5 mi Calm Calm - N/A   Overcast
8:42 AM 55.4 °F 53.6 °F 94% 30.16 in 3.0 mi Calm Calm - N/A   Overcast
8:50 AM 55.4 °F 53.6 °F 94% 30.17 in 3.0 mi Calm Calm - N/A   Overcast
8:53 AM 55.0 °F 54.0 °F 96% 30.18 in 3.0 mi Calm Calm - N/A   Overcast
9:01 AM 55.4 °F 53.6 °F 94% 30.17 in 3.0 mi Calm Calm - N/A   Overcast
9:53 AM 57.0 °F 55.9 °F 96% 30.19 in 2.5 mi Calm Calm - N/A   Overcast
10:01 AM 57.2 °F 55.4 °F 94% 30.19 in 2.5 mi Calm Calm - N/A   Overcast
10:39 AM 57.2 °F 55.4 °F 94% 30.18 in 3.0 mi Calm Calm - N/A   Overcast
10:53 AM 59.0 °F 57.0 °F 93% 30.19 in 3.0 mi ESE 3.5 mph - N/A   Overcast
11:28 AM 59.0 °F 57.2 °F 94% 30.18 in 4.0 mi Calm Calm - N/A   Overcast
11:53 AM 60.1 °F 57.9 °F 93% 30.18 in 4.0 mi Calm Calm - N/A   Overcast
12:53 PM 61.0 °F 57.9 °F 90% 30.16 in 4.0 mi Calm Calm - N/A   Overcast
1:31 PM 60.8 °F 57.2 °F 88% 30.14 in 2.0 mi SSE 3.5 mph - N/A   Overcast
1:42 PM 60.8 °F 57.2 °F 88% 30.14 in 1.8 mi Variable 3.5 mph - N/A   Overcast
1:51 PM 60.8 °F 57.2 °F 88% 30.13 in 2.0 mi SE 3.5 mph - N/A   Overcast
1:53 PM 60.1 °F 57.9 °F 93% 30.13 in 2.0 mi Calm Calm - N/A   Overcast
2:21 PM 60.8 °F 59.0 °F 94% 30.11 in 1.5 mi Variable 3.5 mph - 0.00 in   Overcast
2:53 PM 60.1 °F 59.0 °F 96% 30.12 in 1.8 mi Calm Calm - 0.00 in   Overcast
3:00 PM 60.8 °F 59.0 °F 94% 30.11 in 1.5 mi Calm Calm - N/A   Overcast
3:08 PM 60.8 °F 59.0 °F 94% 30.11 in 1.5 mi Calm Calm - N/A   Overcast
3:53 PM 61.0 °F 60.1 °F 97% 30.11 in 1.8 mi Calm Calm - N/A   Overcast
4:01 PM 60.8 °F 60.8 °F 100% 30.10 in 2.0 mi Calm Calm - N/A   Overcast
4:31 PM 62.6 °F 60.8 °F 94% 30.10 in 3.0 mi Calm Calm - N/A   Overcast
4:53 PM 62.1 °F 60.1 °F 93% 30.09 in 4.0 mi Calm Calm - N/A   Overcast
5:41 PM 62.6 °F 60.8 °F 94% 30.09 in 4.0 mi Calm Calm - N/A   Overcast
5:53 PM 63.0 °F 61.0 °F 93% 30.09 in 4.0 mi Calm Calm - N/A   Overcast
6:53 PM 63.0 °F 61.0 °F 93% 30.08 in 4.0 mi Calm Calm - N/A   Overcast
7:28 PM 62.6 °F 60.8 °F 94% 30.09 in 5.0 mi Calm Calm - N/A   Overcast
7:53 PM 63.0 °F 62.1 °F 97% 30.09 in 5.0 mi Variable 3.5 mph - N/A   Overcast
8:23 PM 64.4 °F 62.6 °F 94% 30.08 in 5.0 mi Calm Calm - N/A   Overcast
8:41 PM 64.4 °F 62.6 °F 94% 30.07 in 6.0 mi Calm Calm - N/A   Overcast
8:51 PM 62.6 °F 62.6 °F 100% 30.07 in 5.0 mi East 4.6 mph - N/A   Mostly Cloudy
8:53 PM 63.0 °F 61.0 °F 93% 30.06 in 5.0 mi ESE 3.5 mph - N/A   Mostly Cloudy
9:02 PM 62.6 °F 60.8 °F 94% 30.06 in 5.0 mi Calm Calm - N/A   Scattered Clouds
9:53 PM 63.0 °F 61.0 °F 93% 30.04 in 4.0 mi Calm Calm - N/A   Mostly Cloudy
10:53 PM 64.0 °F 62.1 °F 93% 30.04 in 5.0 mi Calm Calm - N/A   Mostly Cloudy
11:53 PM 63.0 °F 61.0 °F 93% 30.01 in 5.0 mi Variable 3.5 mph - N/A   Partly Cloudy